This demonstration page uses our WeatherBlox Daily Observations layout. Learn more.

Hourly Observations for October 13, 2018

Temp ( °F °C ) Dew Point ( °F °C ) Humidity (%) Winds ( mph kmh ) Pressure ( in mb ) Visibility ( mi km ) Precip ( " mm )
12:15 am 00:15 Clear 38 3.5 34 1 84 84 S 7 11 29.97 1015 10 16.0934 0 0
12:35 am 00:35 Clear 38 3.1 34 1.2 88 88 S 6 9 29.97 1015 10 16.0934 0 0
12:55 am 00:55 Clear 40 4.5 36 2.1 85 85 S 8 13 29.97 1015 10 16.0934 0 0
1:15 am 01:15 Clear 40 4.2 36 2.3 88 88 S 9 15 29.97 1015 10 16.0934 0 0
1:35 am 01:35 Clear 39 4.1 37 2.6 90 90 S 10 17 29.97 1015 10 16.0934 0 0
1:55 am 01:55 Clear 39 3.7 37 2.5 92 92 S 8 13 29.94 1014 10 16.0934 0 0
2:15 am 02:15 Clear 38 3.6 37 2.5 93 93 S 8 13 29.94 1014 10 16.0934 0 0
2:35 am 02:35 Clear 39 3.7 37 2.7 93 93 SSW 9 15 29.94 1014 10 16.0934 0 0
2:55 am 02:55 Clear 40 4.2 38 3.1 93 93 SSW 9 15 29.94 1014 10 16.0934 0 0
3:15 am 03:15 Clear 39 4 37 3 93 93 SSW 12 19 29.94 1014 10 16.0934 0 0
3:35 am 03:35 Clear 39 4.1 38 3.2 94 94 SSW 13 20 29.94 1014 10 16.0934 0 0
3:55 am 03:55 Clear 40 4.2 38 3.5 95 95 SSW 12 19 29.91 1013 10 16.0934 0 0
4:15 am 04:15 Clear 40 4.3 39 3.7 96 96 SSW 10 17 29.91 1013 10 16.0934 0 0
4:35 am 04:35 Clear 40 4.3 39 3.7 96 96 SSW 13 20 29.91 1013 10 16.0934 0 0
4:55 am 04:55 Clear 39 4.1 38 3.5 96 96 SSW 13 20 29.91 1013 10 16.0934 0 0
5:15 am 05:15 Clear 39 4 38 3.5 97 97 SSW 12 19 29.91 1013 10 16.0934 0 0
5:35 am 05:35 Clear 39 4 38 3.4 96 96 SSW 10 17 29.88 1012 10 16.0934 0 0
5:55 am 05:55 Clear 39 3.9 38 3.3 96 96 SSW 13 20 29.88 1012 10 16.0934 0 0
6:15 am 06:15 Clear 39 4 38 3.1 94 94 SSW 12 19 29.88 1012 10 16.0934 0 0
6:35 am 06:35 Clear 39 3.7 38 3.1 96 96 SSW 8 13 29.88 1012 10 16.0934 0 0
6:55 am 06:55 Clear 39 3.7 38 3.1 96 96 SSW 9 15 29.88 1012 10 16.0934 0 0
7:15 am 07:15 Clear 38 3.5 37 3 97 97 SSW 9 15 29.88 1012 10 16.0934 0 0
7:35 am 07:35 Clear 38 3.5 37 3 97 97 SSW 7 11 29.88 1012 10 16.0934 0 0
7:55 am 07:55 Sunny 38 3.4 37 2.9 97 97 SSW 9 15 29.88 1012 10 16.0934 0 0
8:15 am 08:15 Mostly Cloudy 39 3.8 38 3.2 96 96 SSW 8 13 29.88 1012 10 16.0934 0 0
8:35 am 08:35 Cloudy 40 4.3 38 3.6 95 95 SSW 8 13 29.85 1011 10 16.0934 0 0
8:55 am 08:55 Cloudy 40 4.5 39 3.7 95 95 SSW 10 17 29.85 1011 10 16.0934 0 0
9:15 am 09:15 Mostly Cloudy 42 5.4 40 4.3 93 93 SSW 14 22 29.85 1011 10 16.0934 0 0
9:35 am 09:35 Partly Cloudy 44 6.4 40 4.7 89 89 SSW 16 26 29.85 1011 10 16.0934 0 0
9:55 am 09:55 Partly Cloudy 45 7.1 41 5.1 87 87 SSW 17 28 29.85 1011 10 16.0934 0 0
10:15 am 10:15 Mostly Cloudy 46 7.7 42 5.5 86 86 SSW 15 24 29.83 1010 10 16.0934 0 0
10:35 am 10:35 Mostly Cloudy 47 8.3 43 6 86 86 SSW 15 24 29.83 1010 10 16.0934 0 0
10:55 am 10:55 Partly Cloudy 51 10.5 44 6.7 78 78 SSW 16 26 29.83 1010 10 16.0934 0 0
11:15 am 11:15 Mostly Cloudy 53 11.6 45 7 74 74 SW 13 20 29.8 1009 10 16.0934 0 0
11:35 am 11:35 Partly Cloudy 55 12.6 44 6.9 68 68 SSW 12 19 29.8 1009 10 16.0934 0 0
11:55 am 11:55 Sunny 57 13.7 45 7.2 65 65 SW 9 15 29.8 1009 10 16.0934 0 0
12:15 pm 12:15 Sunny 58 14.5 46 7.5 63 63 SSW 10 17 29.74 1007 10 16.0934 0 0
12:35 pm 12:35 Sunny 60 15.4 46 7.6 60 60 SSW 16 26 29.74 1007 10 16.0934 0 0
12:55 pm 12:55 Sunny 61 16.1 47 8.1 59 59 SSW 14 22 29.74 1007 10 16.0934 0 0
1:15 pm 13:15 Sunny 62 16.6 47 8.5 59 59 S 14 22 29.74 1007 10 16.0934 0 0
1:35 pm 13:35 Partly Cloudy 64 17.7 49 9.4 58 58 SSW 16 26 29.71 1006 10 16.0934 0 0
1:55 pm 13:55 Mostly Cloudy 64 17.7 49 9.7 60 60 S 10 17 29.71 1006 10 16.0934 0 0
2:15 pm 14:15 Cloudy 64 18 50 10.1 60 60 S 9 15 29.71 1006 10 16.0934 0 0
2:35 pm 14:35 Mostly Cloudy 64 17.8 51 10.3 62 62 SSW 12 19 29.68 1005 10 16.0934 0 0
2:55 pm 14:55 Cloudy 63 17.1 51 10.7 66 66 S 13 20 29.68 1005 10 16.0934 0 0
3:15 pm 15:15 Cloudy 62 16.8 51 10.7 67 67 S 10 17 29.71 1006 10 16.0934 0 0
3:35 pm 15:35 Cloudy 62 16.5 51 10.7 69 69 S 8 13 29.71 1006 10 16.0934 0 0
3:55 pm 15:55 Cloudy 62 16.5 51 10.8 69 69 Calm 29.71 1006 10 16.0934 0 0
4:15 pm 16:15 Cloudy 61 16.3 52 11.1 72 72 SW 3 6 29.71 1006 10 16.0934 0 0
4:35 pm 16:35 Cloudy 62 16.6 49 9.5 63 63 S 10 17 29.71 1006 10 16.0934 0 0
4:55 pm 16:55 Cloudy 62 16.5 50 10.1 66 66 SSW 7 11 29.71 1006 10 16.0934 0 0
5:15 pm 17:15 Cloudy 60 15.4 50 9.8 69 69 SW 6 9 29.71 1006 10 16.0934 0 0
5:35 pm 17:35 Cloudy 59 15 50 10.1 73 73 Calm 29.71 1006 10 16.0934 0 0
5:55 pm 17:55 Cloudy with Light Rain 58 14.7 51 10.5 76 76 SW 5 7 29.74 1007 10 16.0934 0 0
6:15 pm 18:15 Cloudy with Light Rain 57 13.7 51 10.7 82 82 S 7 11 29.77 1008 7 11.26538 0 0
6:35 pm 18:35 Cloudy with Rain 55 12.7 53 11.4 92 92 Calm 29.77 1008 7 11.26538 0.01 0.254
6:55 pm 18:55 Cloudy with Light Rain 52 11 51 10.3 95 95 N 12 19 29.77 1008 7 11.26538 0.05 1.27
7:15 pm 19:15 Cloudy with Light Rain 49 9.5 49 9.5 100 100 N 12 19 29.8 1009 5 8.0467 0.04 1.016
7:35 pm 19:35 Cloudy with Drizzle 49 9.4 49 9.4 100 100 NE 14 22 29.83 1010 7 11.26538 0.05 1.27
7:55 pm 19:55 Cloudy with Light Rain 48 8.7 48 8.7 100 100 ENE 13 20 29.83 1010 10 16.0934 0.05 1.27
8:15 pm 20:15 Cloudy 47 8.6 47 8.6 100 100 NE 14 22 29.83 1010 10 16.0934 0 0
8:35 pm 20:35 Cloudy with Light Drizzle 47 8.6 47 8.5 99 99 NE 13 20 29.83 1010 10 16.0934 0 0
8:55 pm 20:55 Cloudy 47 8.5 47 8.5 100 100 NE 3 6 29.85 1011 10 16.0934 0 0
9:15 pm 21:15 Cloudy with Drizzle 47 8.3 47 8.2 99 99 NE 13 20 29.85 1011 7 11.26538 0.01 0.254
9:35 pm 21:35 Cloudy with Light Drizzle 47 8.1 47 8.1 100 100 NE 16 26 29.85 1011 5 8.0467 0.02 0.508
9:55 pm 21:55 Cloudy with Light Rain 46 8 46 8 100 100 NNE 16 26 29.91 1013 5 8.0467 0.02 0.508
10:15 pm 22:15 Cloudy 46 8 46 8 100 100 NNE 12 19 29.91 1013 7 11.26538 0 0
10:35 pm 22:35 Cloudy with Mist and Fog 47 8.1 47 8.1 100 100 NNE 15 24 29.88 1012 5 8.0467 0 0
10:55 pm 22:55 Cloudy with Drizzle 46 7.8 46 7.8 100 100 NNE 15 24 29.91 1013 4 6.43736 0 0
11:15 pm 23:15 Cloudy with Rain 46 7.5 46 7.5 100 100 NNE 18 30 29.94 1014 4 6.43736 0.02 0.508
11:35 pm 23:35 Cloudy with Rain 45 7.3 45 7.3 100 100 NE 17 28 29.94 1014 4 6.43736 0.03 0.762
11:55 pm 23:55 Cloudy with Light Rain 45 7.2 45 7.2 100 100 NE 17 28 29.94 1014 4 6.43736 0.04 1.016

Powered by AerisWeather